| time (UTC) | temp F | wind direction | speed MPH | gust MPH | rain 1hr in | rain 24hr in | rain mn in | humidity % | barometer mb |
| 20260502223036 | 68 | 196 | 6.0 | 11.0 | 0.00 | 0.00 | 0.00 | 29 | 1007.1 |
| 20260502221606 | 67 | 267 | 6.0 | 13.0 | 0.00 | 0.00 | 0.00 | 34 | 1007.5 |
| 20260502220012 | 68 | 294 | 12.0 | 18.0 | 0.00 | 0.00 | 0.00 | 32 | 1007.7 |
| 20260502214524 | 67 | 288 | 7.0 | 17.0 | 0.00 | 0.00 | 0.00 | 33 | 1007.7 |
| 20260502213042 | 67 | 259 | 8.0 | 15.0 | 0.00 | 0.00 | 0.00 | 33 | 1008.0 |
| 20260502211547 | 67 | 267 | 6.0 | 12.0 | 0.00 | 0.00 | 0.00 | 33 | 1008.1 |
| 20260502210010 | 64 | 351 | 5.0 | 8.0 | 0.00 | 0.00 | 0.00 | 34 | 1008.5 |
| 20260502204522 | 64 | 313 | 4.0 | 8.0 | 0.00 | 0.00 | 0.00 | 34 | 1008.6 |
| 20260502203039 | 64 | 305 | 5.0 | 11.0 | 0.00 | 0.00 | 0.00 | 35 | 1008.6 |
| 20260502201550 | 64 | 259 | 6.0 | 12.0 | 0.00 | 0.00 | 0.00 | 38 | 1008.9 |
| 20260502200006 | 66 | 304 | 10.0 | 14.0 | 0.00 | 0.00 | 0.00 | 38 | 1009.2 |
| 20260502194512 | 66 | 226 | 4.0 | 12.0 | 0.00 | 0.00 | 0.00 | 38 | 1009.4 |
| 20260502193026 | 62 | 226 | 5.0 | 11.0 | 0.00 | 0.00 | 0.00 | 40 | 1009.4 |
| 20260502191543 | 64 | 270 | 4.0 | 10.0 | 0.00 | 0.00 | 0.00 | 36 | 1009.6 |
| 20260502190057 | 62 | 317 | 6.0 | 11.0 | 0.00 | 0.00 | 0.00 | 44 | 1009.7 |
| 20260502184509 | 62 | 309 | 7.0 | 10.0 | 0.00 | 0.00 | 0.00 | 38 | 1010.1 |
| 20260502183022 | 64 | 94 | 1.0 | 10.0 | 0.00 | 0.00 | 0.00 | 39 | 1010.3 |
| 20260502181537 | 63 | 268 | 7.0 | 11.0 | 0.00 | 0.00 | 0.00 | 39 | 1010.3 |
| 20260502163011 | 59 | 25 | 3.0 | 6.0 | 0.00 | 0.00 | 0.00 | 51 | 1011.0 |
| 20260502161521 | 57 | 284 | 1.0 | 6.0 | 0.00 | 0.00 | 0.00 | 55 | 1011.1 |
| 20260502151613 | 54 | 106 | 1.0 | 3.0 | 0.00 | 0.00 | 0.00 | 57 | 1011.0 |
| 20260502130107 | 43 | 331 | 4.0 | 5.0 | 0.00 | 0.00 | 0.00 | 75 | 1010.3 |
| 20260502123033 | 43 | 351 | 5.0 | 7.0 | 0.00 | 0.00 | 0.00 | 73 | 1009.9 |
| 20260502121546 | 43 | 5 | 4.0 | 7.0 | 0.00 | 0.00 | 0.00 | 73 | 1009.9 |
| 20260502114512 | 43 | 355 | 4.0 | 6.0 | 0.00 | 0.00 | 0.00 | 74 | 1009.6 |
| 20260502113032 | 43 | 360 | 5.0 | 7.0 | 0.00 | 0.00 | 0.00 | 73 | 1009.6 |
| 20260502111540 | 43 | 347 | 4.0 | 6.0 | 0.00 | 0.00 | 0.00 | 73 | 1009.4 |
| 20260502110057 | 43 | 355 | 5.0 | 7.0 | 0.00 | 0.00 | 0.00 | 73 | 1009.3 |
| 20260502104506 | 43 | 349 | 5.0 | 7.0 | 0.00 | 0.00 | 0.00 | 74 | 1008.9 |
| 20260502103024 | 43 | 349 | 5.0 | 7.0 | 0.00 | 0.00 | 0.00 | 74 | 1008.9 |
| 20260502101531 | 44 | 340 | 5.0 | 7.0 | 0.00 | 0.00 | 0.00 | 73 | 1008.8 |
| 20260502091514 | 49 | 331 | 4.0 | 7.0 | 0.00 | 0.00 | 0.00 | 65 | 1008.1 |
| 20260502071502 | 56 | 5 | 11.0 | 18.0 | 0.00 | 0.00 | 0.00 | 54 | 1007.0 |
| 20260502070037 | 53 | 342 | 7.0 | 11.0 | 0.00 | 0.00 | 0.00 | 59 | 1007.0 |
| 20260502064529 | 50 | 308 | 3.0 | 8.0 | 0.00 | 0.00 | 0.00 | 61 | 1007.0 |
| 20260502063042 | 49 | 341 | 5.0 | 8.0 | 0.00 | 0.00 | 0.00 | 61 | 1006.9 |
| 20260502061544 | 50 | 346 | 6.0 | 9.0 | 0.00 | 0.00 | 0.00 | 57 | 1007.0 |
| 20260502060021 | 52 | 340 | 7.0 | 10.0 | 0.00 | 0.00 | 0.00 | 54 | 1006.8 |
| 20260502054537 | 53 | 351 | 8.0 | 10.0 | 0.00 | 0.00 | 0.00 | 53 | 1006.8 |
| 20260502053043 | 54 | 321 | 7.0 | 12.0 | 0.00 | 0.00 | 0.00 | 53 | 1006.8 |
| 20260502051502 | 56 | 338 | 9.0 | 14.0 | 0.00 | 0.00 | 0.00 | 47 | 1006.4 |
| 20260502050009 | 57 | 355 | 10.0 | 14.0 | 0.00 | 0.00 | 0.00 | 47 | 1006.3 |
| 20260502044524 | 58 | 355 | 10.0 | 15.0 | 0.00 | 0.00 | 0.00 | 45 | 1006.3 |
| 20260502043034 | 58 | 334 | 10.0 | 15.0 | 0.00 | 0.00 | 0.00 | 45 | 1006.3 |
| 20260502041556 | 58 | 360 | 11.0 | 16.0 | 0.00 | 0.00 | 0.00 | 45 | 1006.3 |
| 20260502040057 | 58 | 340 | 10.0 | 15.0 | 0.00 | 0.00 | 0.00 | 45 | 1006.3 |
| 20260502034517 | 59 | 344 | 10.0 | 15.0 | 0.00 | 0.00 | 0.00 | 42 | 1005.9 |
| 20260502033022 | 61 | 360 | 11.0 | 17.0 | 0.00 | 0.00 | 0.00 | 39 | 1005.8 |
| 20260502031538 | 63 | 5 | 14.0 | 21.0 | 0.00 | 0.00 | 0.00 | 37 | 1005.8 |
| 20260502030053 | 62 | 343 | 9.0 | 12.0 | 0.00 | 0.00 | 0.00 | 36 | 1005.4 |
| 20260502024508 | 62 | 355 | 8.0 | 13.0 | 0.00 | 0.00 | 0.00 | 36 | 1005.1 |
| 20260502023019 | 64 | 340 | 9.0 | 12.0 | 0.00 | 0.00 | 0.00 | 34 | 1004.9 |
| 20260502021534 | 65 | 355 | 10.0 | 17.0 | 0.00 | 0.00 | 0.00 | 31 | 1004.9 |
| 20260502020044 | 67 | 355 | 13.0 | 20.0 | 0.00 | 0.00 | 0.00 | 31 | 1004.9 |
| 20260502014600 | 67 | 338 | 12.0 | 18.0 | 0.00 | 0.00 | 0.00 | 30 | 1004.7 |
| 20260502013012 | 67 | 346 | 13.0 | 20.0 | 0.00 | 0.00 | 0.00 | 31 | 1004.3 |
| 20260502011528 | 69 | 343 | 16.0 | 24.0 | 0.00 | 0.00 | 0.00 | 28 | 1004.3 |
| 20260502010037 | 70 | 346 | 16.0 | 24.0 | 0.00 | 0.00 | 0.00 | 29 | 1004.2 |
| 20260502004552 | 70 | 339 | 16.0 | 28.0 | 0.00 | 0.00 | 0.00 | 28 | 1004.2 |
| 20260502003100 | 72 | 344 | 16.0 | 22.0 | 0.00 | 0.00 | 0.00 | 27 | 1004.2 |
| 20260502003006 | 72 | 335 | 16.0 | 22.0 | 0.00 | 0.00 | 0.00 | 27 | 1004.0 |
| 20260502001519 | 72 | 306 | 13.0 | 18.0 | 0.00 | 0.00 | 0.00 | 27 | 1003.8 |
| 20260502000055 | 73 | 300 | 14.0 | 19.0 | 0.00 | 0.00 | 0.00 | 26 | 1003.8 |
| 20260501234542 | 75 | 270 | 10.0 | 21.0 | 0.00 | 0.00 | 0.00 | 22 | 1003.8 |
| 20260501233100 | 76 | 298 | 17.0 | 23.0 | 0.00 | 0.00 | 0.00 | 22 | 1003.8 |
| 20260501231511 | 76 | 253 | 13.0 | 20.0 | 0.00 | 0.00 | 0.00 | 23 | 1004.1 |
| 20260501230030 | 75 | 252 | 10.0 | 18.0 | 0.00 | 0.00 | 0.00 | 24 | 1004.1 |
| 20260501224602 | 76 | 278 | 7.0 | 20.0 | 0.00 | 0.00 | 0.00 | 21 | 1004.3 |